Temperature
-2 -2 -1 -1 -1 -1 -0 -0 -0 -0 -0 -0 -0 -0 -0 -1 -1 -1 -1 -1 -1 -1 -1 -1 -1 -1 -1 -1 -2 -2 -2 -2 -2 -2 -2 -2 -2 -2 -2 -2 -2 -1 -1
-3 -2 -2 -2 -1 -1 -1 -1 -1 -1 -1 -1 -1 -1 -1 -1 -1 -2 -1 -1 -1 -1 -1 -1 -1 -2 -2 -2 -2 -2 -2 -2 -2 -2 -2 -2 -2 -2 -2 -2 -2 -2 -2
-4 -3 -3 -2 -2 -2 -2 -2 -2 -2 -2 -1 -1 -1 -2 -2 -2 -2 -2 -2 -2 -2 -2 -2 -2 -2 -2 -2 -2 -2 -2 -3 -3 -3 -3 -3 -3 -3 -3 -3 -3 -3 -3
-4 -4 -4 -3 -3 -3 -2 -2 -2 -2 -2 -2 -2 -2 -2 -2 -2 -2 -3 -2 -2 -2 -2 -2 -2 -2 -2 -2 -3 -3 -3 -3 -3 -3 -3 -3 -3 -3 -4 -4 -3 -3 -3
-5 -5 -4 -4 -4 -3 -3 -3 -3 -3 -3 -3 -3 -3 -3 -3 -3 -3 -3 -3 -3 -3 -3 -3 -3 -3 -3 -3 -3 -3 -3 -3 -4 -4 -4 -4 -4 -4 -4 -4 -4 -4 -4
-6 -5 -5 -5 -4 -4 -4 -4 -4 -4 -3 -3 -3 -3 -3 -3 -3 -3 -3 -4 -3 -3 -3 -3 -3 -3 -4 -4 -3 -3 -4 -4 -4 -4 -4 -4 -4 -4 -4 -4 -5 -5 -5
-6 -6 -5 -5 -5 -5 -5 -5 -4 -4 -4 -4 -4 -4 -4 -4 -4 -4 -4 -4 -4 -4 -4 -4 -4 -4 -4 -4 -4 -4 -4 -4 -4 -4 -4 -4 -4 -5 -5 -5 -5 -5 -5
-7 -7 -6 -6 -6 -6 -6 -5 -5 -5 -5 -5 -5 -5 -5 -4 -4 -4 -4 -5 -5 -5 -4 -4 -4 -4 -4 -5 -5 -5 -5 -5 -5 -5 -5 -5 -5 -5 -5 -5 -5 -5 -6
-7 -7 -7 -7 -7 -6 -6 -6 -6 -6 -6 -6 -6 -5 -5 -5 -5 -5 -5 -5 -5 -5 -5 -5 -5 -5 -5 -5 -5 -5 -5 -5 -5 -5 -5 -5 -5 -5 -5 -6 -6 -6 -6
-8 -8 -8 -8 -7 -7 -7 -7 -7 -7 -7 -7 -6 -6 -6 -6 -6 -6 -6 -6 -6 -6 -6 -6 -6 -6 -5 -6 -6 -6 -6 -6 -6 -6 -6 -6 -6 -6 -6 -6 -6 -6 -7
-9 -9 -8 -8 -8 -8 -8 -7 -7 -7 -7 -7 -7 -7 -7 -7 -6 -6 -6 -6 -6 -6 -7 -6 -6 -6 -6 -6 -6 -6 -6 -6 -6 -6 -6 -7 -7 -7 -7 -7 -7 -7 -7
-9 -9 -9 -9 -9 -8 -8 -8 -8 -8 -8 -8 -8 -7 -7 -7 -7 -7 -7 -7 -7 -7 -7 -7 -7 -7 -7 -7 -7 -7 -7 -7 -7 -7 -7 -7 -7 -7 -7 -7 -7 -7 -7
-10 -10 -10 -9 -9 -9 -9 -9 -9 -9 -9 -9 -9 -8 -8 -8 -8 -8 -7 -7 -7 -8 -7 -7 -7 -7 -7 -8 -8 -8 -8 -8 -8 -8 -8 -8 -8 -7 -8 -8 -8 -8 -8
-11 -11 -10 -10 -10 -10 -10 -10 -10 -10 -9 -9 -9 -9 -9 -9 -9 -8 -8 -8 -8 -8 -8 -8 -8 -8 -8 -8 -8 -8 -8 -8 -8 -8 -8 -8 -8 -8 -8 -8 -8 -8 -8
-12 -11 -11 -11 -11 -11 -10 -10 -10 -10 -10 -10 -10 -10 -10 -10 -9 -9 -9 -9 -9 -9 -9 -8 -9 -9 -9 -9 -9 -9 -9 -9 -9 -9 -9 -9 -9 -9 -9 -9 -9 -9 -9
-12 -12 -12 -12 -11 -11 -11 -11 -11 -11 -10 -10 -10 -10 -10 -10 -10 -10 -9 -9 -9 -9 -9 -9 -9 -9 -9 -9 -9 -9 -9 -9 -9 -9 -10 -9 -9 -9 -9 -9 -10 -10 -10
-13 -13 -12 -12 -12 -12 -12 -11 -11 -11 -11 -11 -11 -10 -10 -10 -10 -10 -10 -10 -9 -9 -9 -10 -10 -10 -10 -10 -10 -10 -10 -10 -10 -10 -10 -10 -10 -10 -10 -10 -10 -10 -10
-13 -13 -13 -13 -13 -12 -12 -12 -12 -12 -11 -11 -11 -11 -11 -11 -10 -10 -10 -10 -10 -10 -10 -10 -10 -10 -10 -10 -10 -10 -10 -10 -10 -10 -10 -10 -11 -11 -10 -10 -10 -10 -11
-14 -13 -13 -13 -13 -13 -13 -13 -13 -12 -12 -12 -12 -11 -11 -11 -11 -11 -11 -11 -11 -11 -10 -10 -10 -10 -10 -10 -10 -10 -10 -10 -11 -11 -11 -11 -11 -11 -11 -11 -11 -11 -11
-14 -14 -14 -14 -13 -13 -13 -13 -13 -13 -13 -13 -12 -12 -12 -12 -11 -11 -11 -11 -11 -11 -11 -11 -11 -11 -11 -11 -11 -11 -11 -11 -11 -11 -11 -11 -11 -11 -11 -11 -11 -11 -11
-14 -14 -14 -14 -14 -14 -14 -14 -13 -13 -13 -13 -13 -13 -12 -12 -12 -12 -12 -12 -11 -11 -11 -11 -11 -11 -11 -11 -11 -11 -11 -11 -11 -11 -11 -11 -12 -12 -12 -12 -11 -12 -12
-15 -15 -15 -15 -14 -14 -14 -14 -14 -14 -14 -14 -13 -13 -13 -13 -12 -12 -12 -12 -12 -12 -12 -11 -11 -11 -11 -11 -11 -11 -11 -11 -11 -11 -11 -12 -12 -12 -12 -12 -12 -12 -12
-15 -15 -15 -15 -15 -15 -15 -15 -14 -14 -14 -14 -14 -14 -13 -13 -13 -13 -13 -12 -12 -12 -12 -12 -12 -12 -12 -12 -12 -12 -12 -12 -12 -12 -12 -12 -12 -12 -12 -12 -12 -12 -12
-16 -16 -16 -16 -16 -15 -15 -15 -15 -15 -15 -14 -14 -14 -14 -14 -14 -13 -13 -13 -13 -13 -13 -12 -12 -12 -12 -12 -12 -12 -12 -12 -12 -12 -12 -12 -12 -12 -12 -12 -12 -13 -13
-16 -16 -16 -16 -16 -16 -16 -16 -16 -15 -15 -15 -15 -15 -14 -14 -14 -14 -14 -13 -13 -13 -13 -13 -13 -13 -13 -12 -12 -12 -12 -12 -12 -12 -12 -12 -12 -13 -13 -13 -13 -13 -13
-17 -17 -17 -17 -17 -16 -16 -16 -16 -16 -16 -15 -15 -15 -15 -15 -15 -14 -14 -14 -14 -14 -13 -13 -13 -13 -13 -13 -13 -13 -13 -13 -13 -13 -13 -13 -13 -13 -13 -13 -13 -13 -13
Wind_Speed
5 4 4 3 3 3 3 5 5 5 6 7 7 7 8 7 7 7 8 8 9 9 8 9 9 8 7 6 6 6 6 6 7 6 5 5 6 6 6 7 7 7 7
5 4 4 3 3 3 3 3 4 5 5 6 6 7 7 8 8 8 9 9 9 10 10 10 10 8 9 7 7 7 7 7 6 7 6 5 7 7 6 7 6 7 7
5 5 4 4 3 3 3 4 4 4 4 5 6 7 7 8 8 9 9 9 9 10 10 11 11 10 10 8 8 8 7 6 6 6 6 5 5 5 6 6 6 6 7
5 5 5 5 4 4 4 4 4 4 4 5 6 6 7 7 8 8 8 9 9 9 9 10 11 12 12 11 9 9 7 7 7 6 6 5 5 5 5 5 5 5 5
5 5 5 5 4 4 3 3 3 3 4 4 4 5 6 6 7 8 8 8 9 9 9 10 10 12 13 11 8 9 8 7 6 7 6 5 5 5 5 5 5 5 5
5 5 5 5 4 4 4 3 3 3 3 3 4 4 5 5 8 10 8 8 8 9 9 9 9 10 12 13 13 12 11 10 9 8 7 8 8 7 6 5 5 5 5
6 5 5 4 4 4 4 3 3 3 3 3 4 4 5 6 7 9 9 7 7 7 8 8 7 8 10 9 11 12 12 13 12 10 9 9 9 7 7 7 7 7 6
6 6 5 5 5 4 4 4 4 3 3 3 4 4 5 5 7 7 8 7 7 7 7 8 8 8 9 10 9 9 9 9 11 9 8 8 7 7 7 7 7 6 6
6 6 6 5 5 4 4 4 4 4 4 4 4 4 5 5 6 7 7 5 5 6 6 7 8 8 11 12 9 8 8 8 9 10 9 8 8 8 7 5 5 5 5
8 7 6 5 5 5 5 4 4 4 4 4 4 4 4 5 5 6 6 4 4 5 5 6 8 8 10 11 9 8 9 7 6 6 6 7 7 7 8 7 6 6 4
8 7 6 5 5 5 4 4 4 4 4 4 4 4 4 5 5 6 6 4 4 4 4 4 5 8 8 9 9 7 8 6 6 5 5 5 5 5 5 6 6 5 6
8 7 6 6 5 4 4 4 4 4 4 4 4 4 3 4 5 5 7 6 5 4 4 4 4 7 8 8 7 6 7 6 4 4 4 5 5 5 4 5 6 7 7
8 7 6 6 5 5 4 4 4 3 3 3 3 4 3 3 4 6 7 7 6 4 4 5 5 6 7 6 6 7 6 4 4 5 5 5 4 4 4 3 4 5 5
8 7 6 6 5 5 4 4 4 4 4 4 4 4 4 4 3 3 4 4 5 4 3 5 6 6 5 5 5 5 4 4 4 4 4 3 3 3 4 3 3 3 3
7 7 6 5 5 5 5 4 5 5 5 5 5 5 5 5 5 6 5 4 3 3 3 2 3 3 4 4 4 4 4 4 4 4 4 4 3 3 3 3 3 4 4
7 6 5 5 5 4 5 5 6 7 8 9 9 8 7 8 9 9 8 8 6 5 4 4 4 4 5 5 5 4 4 5 4 4 4 4 4 4 4 4 4 5 5
7 7 6 5 5 5 5 5 5 6 6 7 8 8 8 9 9 9 8 7 7 6 5 5 5 5 5 5 5 5 4 4 4 4 4 4 4 4 5 5 5 5 5
7 7 6 5 5 5 5 5 5 5 6 5 6 8 8 9 9 8 7 6 5 5 5 5 5 5 5 5 5 5 4 4 4 4 5 5 5 5 5 5 6 6 6
7 6 5 5 5 5 5 5 5 5 6 6 6 6 7 7 8 7 6 4 4 5 5 5 5 5 5 5 5 5 5 5 5 5 5 5 5 5 6 6 6 7 6
6 8 7 6 5 5 5 5 5 5 5 6 6 6 5 5 4 4 4 4 4 4 4 5 5 5 5 5 5 5 5 6 6 6 5 5 5 5 6 7 6 6 6
6 7 8 7 5 5 5 5 5 5 5 6 6 6 8 6 5 5 5 4 4 4 4 4 5 5 5 5 6 6 7 6 6 6 6 6 5 6 6 6 6 6 5
6 6 5 5 5 5 6 5 5 6 6 6 6 6 8 5 5 5 4 4 4 4 4 4 4 5 5 6 6 7 7 7 6 6 6 6 6 6 6 6 6 6 6
5 6 6 6 6 7 7 6 5 6 6 6 6 5 5 4 5 5 5 4 4 4 4 5 5 5 6 6 7 7 8 8 7 7 7 6 6 6 6 6 7 7 7
6 6 6 6 6 6 6 6 6 6 6 6 6 5 5 5 5 5 5 5 4 5 5 5 5 7 8 7 7 8 8 9 8 8 9 8 7 7 7 7 7 8 7
5 6 6 6 6 6 6 6 6 6 6 6 5 5 5 5 5 5 5 5 5 5 6 6 6 6 8 9 9 9 10 12 11 10 9 8 8 8 8 8 7 7 7
6 6 6 6 6 6 6 6 6 6 6 6 6 6 6 6 6 6 5 5 5 5 6 6 7 8 9 9 10 11 12 12 12 13 10 8 8 8 8 7 8 8 8
Wind_Direction
336 318 301 290 279 260 244 238 232 221 213 213 211 209 209 211 212 215 217 214 216 216 214 215 217 216 215 216 216 221 226 232 244 254 250 241 238 246 255 257 261 264 262
335 329 310 301 297 279 266 263 249 232 218 217 217 215 213 213 214 217 219 219 221 221 219 218 218 215 217 217 215 220 226 231 239 248 248 245 244 243 248 252 260 261 262
339 335 328 315 303 292 285 274 261 243 230 221 218 218 219 217 217 219 220 222 224 225 222 219 217 214 217 217 216 220 224 228 233 239 242 245 248 242 246 251 255 257 262
337 334 328 323 312 297 290 285 270 254 238 227 223 222 224 224 222 221 222 225 228 229 227 223 219 216 217 216 216 218 217 221 225 230 236 236 237 236 237 242 253 252 259
333 330 326 322 319 316 308 295 284 265 253 243 234 228 227 226 224 221 222 225 226 227 226 226 226 223 222 220 216 214 212 218 223 228 233 237 233 226 233 238 246 255 262
326 324 323 321 321 319 313 303 297 283 268 256 242 237 232 232 228 225 226 228 227 222 223 224 224 224 224 224 225 223 220 218 220 227 232 232 236 239 238 238 242 251 262
324 324 323 318 317 314 312 311 307 299 285 269 257 245 240 238 227 227 227 229 228 224 223 222 223 222 223 225 227 228 229 231 232 231 233 234 235 233 231 237 239 244 256
325 324 319 317 313 313 313 309 307 300 290 281 272 259 252 247 235 235 232 232 232 229 227 224 222 222 220 219 223 227 231 233 235 233 235 240 240 236 234 238 242 246 262
323 319 315 309 306 308 306 303 302 298 296 291 282 272 261 256 243 239 236 236 236 233 230 228 222 222 219 218 218 223 231 235 233 234 239 240 241 237 230 224 222 231 253
320 313 308 303 297 295 295 298 298 297 293 289 284 276 269 261 249 245 235 235 237 239 237 231 224 222 219 216 217 219 224 226 222 224 232 234 232 229 227 224 221 228 245
315 309 304 302 297 291 292 295 296 295 293 290 286 280 274 262 253 251 242 234 229 234 232 232 226 221 224 221 223 224 222 219 216 215 222 228 228 226 226 227 228 230 235
314 307 304 304 303 298 293 292 290 289 287 287 287 287 279 267 258 258 252 243 236 235 240 236 229 224 227 227 227 222 219 215 213 213 219 225 227 229 231 232 235 240 246
314 308 305 305 303 298 292 288 287 282 279 284 286 288 290 285 271 264 263 251 243 245 245 239 232 226 227 230 223 220 220 217 214 219 224 229 231 233 231 234 241 244 251
311 308 305 303 301 299 294 287 281 278 275 277 280 285 290 288 281 276 271 257 241 248 247 232 227 226 227 222 217 216 219 217 219 224 228 233 234 231 230 230 237 237 247
309 306 303 299 297 297 291 284 282 277 272 273 274 276 278 278 276 274 271 259 246 238 231 230 229 225 221 219 218 215 216 216 222 223 224 229 231 235 238 234 234 233 241
307 306 303 299 296 294 295 295 284 278 286 279 273 273 275 274 276 274 268 258 249 226 227 232 228 226 224 221 218 218 220 222 222 222 223 225 229 231 238 238 231 233 240
301 300 300 297 294 294 293 295 302 301 292 290 287 284 282 283 280 277 275 263 245 225 228 229 229 229 229 227 223 223 225 225 224 222 225 226 230 234 235 237 236 237 241
302 298 297 295 293 290 288 290 292 296 303 303 300 297 295 290 284 279 273 267 247 236 230 229 230 229 227 226 226 228 229 227 226 227 228 228 228 231 236 238 236 236 240
301 300 299 299 295 291 289 288 288 289 291 295 299 299 303 301 292 277 267 254 248 246 238 233 232 230 229 229 229 231 231 230 230 230 232 232 231 231 237 240 237 236 238
296 298 302 299 297 295 294 292 290 288 289 290 291 294 301 300 291 280 268 259 254 251 242 238 237 234 231 230 229 230 233 233 232 233 236 236 235 235 237 238 233 233 236
297 299 301 297 294 293 292 289 287 286 286 286 286 287 291 287 285 283 275 266 259 256 254 250 245 240 235 232 231 230 232 235 235 235 236 237 237 238 240 239 235 231 232
296 297 297 294 293 292 290 289 287 285 285 285 287 289 294 292 286 281 277 273 270 263 259 257 258 253 244 236 231 231 233 235 235 234 235 236 237 237 236 236 234 230 228
295 296 295 295 294 293 294 290 287 286 285 286 288 290 291 289 288 286 284 283 280 276 273 264 260 259 255 250 242 234 234 235 234 230 232 235 235 235 234 234 233 233 232
292 292 293 294 293 290 289 288 286 285 285 285 286 287 287 287 287 286 284 283 280 279 275 268 263 261 261 261 259 252 245 243 239 233 230 231 234 236 235 235 236 235 234
293 292 291 291 290 289 289 288 286 285 284 283 283 284 286 287 287 288 287 283 282 280 279 275 268 264 262 263 262 262 258 251 247 242 235 233 233 235 235 236 235 234 234
295 293 291 290 288 288 286 286 286 286 284 284 283 283 283 284 284 285 285 282 280 280 281 277 270 267 268 268 264 262 262 260 253 246 241 236 233 235 233 233 233 232 233
Height
1464 1463 1464 1464 1464 1465 1466 1466 1467 1468 1469 1470 1471 1472 1474 1475 1477 1479 1480 1482 1484 1485 1487 1489 1491 1493 1494 1496 1497 1499 1500 1501 1501 1500 1501 1502 1502 1502 1503 1503 1503 1503 1503
1461 1460 1460 1460 1461 1461 1461 1462 1462 1463 1463 1465 1466 1467 1468 1469 1471 1472 1474 1476 1477 1479 1481 1483 1484 1486 1488 1490 1491 1493 1494 1496 1496 1496 1496 1496 1497 1497 1497 1498 1498 1498 1498
1459 1458 1457 1457 1457 1457 1457 1457 1458 1458 1458 1459 1460 1461 1463 1464 1465 1467 1468 1469 1471 1472 1474 1476 1478 1480 1481 1483 1485 1487 1488 1490 1491 1491 1490 1491 1491 1492 1492 1493 1493 1493 1493
1456 1455 1454 1454 1454 1453 1453 1453 1453 1453 1454 1454 1455 1456 1457 1459 1460 1461 1462 1463 1464 1466 1467 1469 1471 1473 1475 1477 1478 1480 1482 1484 1485 1485 1485 1485 1486 1486 1487 1487 1487 1488 1488
1454 1453 1452 1451 1450 1450 1450 1449 1449 1449 1450 1450 1450 1451 1452 1453 1454 1455 1456 1457 1458 1459 1460 1462 1464 1466 1468 1470 1472 1474 1476 1477 1479 1479 1479 1480 1480 1481 1482 1482 1483 1483 1483
1451 1450 1449 1448 1448 1447 1446 1446 1446 1445 1445 1445 1446 1446 1447 1448 1449 1450 1451 1451 1452 1453 1454 1456 1457 1460 1462 1464 1466 1468 1470 1471 1473 1474 1474 1474 1474 1476 1476 1477 1478 1477 1477
1449 1448 1446 1445 1444 1444 1443 1442 1442 1441 1441 1441 1441 1442 1442 1444 1445 1445 1446 1446 1446 1447 1449 1450 1451 1453 1455 1457 1460 1462 1463 1465 1467 1468 1469 1469 1470 1470 1471 1472 1472 1472 1472
1447 1445 1444 1443 1442 1441 1440 1439 1438 1438 1438 1437 1437 1438 1438 1439 1440 1440 1441 1441 1442 1442 1443 1444 1446 1447 1449 1451 1453 1454 1456 1458 1460 1462 1463 1464 1465 1466 1466 1467 1467 1467 1467
1444 1442 1441 1440 1439 1438 1437 1436 1435 1435 1434 1434 1433 1434 1434 1434 1435 1436 1437 1436 1437 1437 1438 1439 1440 1441 1443 1446 1447 1448 1450 1451 1454 1456 1457 1458 1459 1460 1461 1461 1461 1462 1461
1442 1440 1438 1437 1436 1435 1434 1433 1432 1432 1431 1431 1430 1430 1430 1430 1431 1432 1432 1432 1432 1432 1433 1433 1434 1436 1438 1440 1441 1442 1444 1445 1447 1449 1451 1452 1453 1454 1455 1455 1455 1456 1456
1439 1437 1435 1434 1433 1432 1431 1430 1429 1429 1428 1427 1427 1426 1427 1427 1427 1427 1427 1427 1427 1428 1428 1429 1430 1431 1433 1434 1436 1437 1438 1440 1441 1443 1445 1446 1447 1448 1449 1450 1450 1451 1451
1436 1434 1432 1431 1430 1429 1427 1426 1426 1425 1424 1424 1423 1422 1423 1423 1423 1423 1423 1423 1424 1424 1424 1425 1426 1427 1428 1430 1431 1432 1433 1435 1436 1437 1439 1441 1442 1443 1444 1445 1445 1446 1447
1433 1431 1429 1428 1427 1425 1424 1423 1422 1422 1421 1420 1419 1419 1418 1419 1418 1419 1419 1419 1419 1420 1420 1421 1422 1423 1424 1425 1426 1427 1429 1430 1431 1432 1433 1435 1437 1437 1438 1439 1440 1441 1441
1430 1428 1426 1425 1423 1422 1421 1420 1419 1418 1417 1416 1416 1415 1415 1415 1414 1414 1414 1415 1415 1416 1416 1417 1418 1419 1420 1421 1422 1424 1425 1426 1426 1427 1429 1430 1431 1432 1433 1434 1435 1435 1435
1427 1425 1424 1422 1420 1419 1418 1417 1416 1415 1414 1413 1412 1412 1411 1410 1410 1411 1411 1411 1411 1412 1412 1413 1414 1415 1416 1417 1418 1419 1421 1422 1423 1423 1424 1426 1427 1428 1428 1429 1430 1430 1431
1424 1422 1421 1419 1417 1416 1414 1413 1412 1412 1410 1409 1409 1408 1407 1407 1407 1407 1407 1407 1407 1408 1409 1409 1410 1411 1412 1413 1414 1415 1416 1417 1418 1419 1420 1421 1422 1422 1423 1424 1425 1425 1425
1422 1420 1418 1416 1414 1413 1411 1410 1408 1408 1407 1406 1405 1404 1404 1403 1403 1403 1403 1403 1403 1404 1404 1405 1405 1406 1408 1409 1410 1411 1412 1413 1414 1414 1415 1416 1417 1417 1418 1419 1419 1420 1420
1419 1417 1415 1413 1412 1410 1409 1407 1406 1404 1403 1401 1401 1400 1400 1399 1399 1399 1399 1399 1399 1400 1400 1401 1401 1403 1404 1405 1406 1406 1407 1408 1409 1410 1410 1411 1412 1412 1413 1413 1414 1414 1415
1416 1414 1412 1410 1409 1407 1406 1404 1403 1401 1400 1398 1397 1397 1396 1395 1395 1395 1395 1395 1395 1395 1396 1396 1397 1398 1399 1400 1401 1402 1403 1403 1404 1405 1406 1406 1407 1407 1407 1408 1409 1409 1409
1413 1411 1410 1408 1406 1404 1403 1401 1400 1398 1397 1395 1394 1393 1393 1392 1391 1391 1391 1391 1391 1391 1391 1392 1393 1394 1394 1395 1396 1397 1397 1398 1399 1400 1400 1401 1401 1402 1402 1402 1403 1403 1404
1411 1408 1407 1405 1403 1401 1399 1398 1396 1395 1393 1392 1391 1390 1389 1388 1387 1387 1386 1386 1386 1386 1387 1387 1388 1389 1389 1390 1391 1391 1392 1393 1393 1394 1395 1396 1396 1397 1397 1397 1398 1398 1398
1408 1405 1403 1401 1399 1398 1396 1395 1393 1392 1390 1389 1387 1387 1386 1385 1384 1383 1382 1382 1382 1382 1382 1383 1383 1384 1384 1385 1385 1386 1386 1387 1388 1389 1389 1390 1391 1391 1392 1392 1392 1393 1393
1404 1402 1400 1398 1396 1394 1393 1391 1389 1388 1387 1385 1384 1383 1382 1381 1380 1379 1379 1378 1378 1378 1378 1378 1378 1378 1379 1379 1380 1380 1381 1382 1382 1383 1384 1385 1386 1386 1387 1387 1387 1388 1388
1401 1399 1396 1394 1392 1390 1389 1387 1386 1384 1383 1382 1380 1379 1378 1377 1376 1375 1374 1374 1373 1373 1373 1373 1373 1373 1373 1374 1374 1375 1375 1376 1377 1378 1378 1379 1380 1380 1381 1381 1382 1382 1382
1397 1395 1393 1391 1389 1387 1385 1383 1382 1381 1379 1378 1376 1375 1374 1373 1372 1371 1370 1369 1369 1368 1368 1368 1368 1368 1368 1368 1368 1369 1369 1370 1371 1372 1372 1373 1374 1374 1375 1376 1376 1376 1377
1393 1391 1389 1387 1385 1383 1381 1380 1378 1376 1375 1374 1372 1371 1370 1368 1367 1367 1366 1365 1364 1364 1363 1363 1363 1363 1362 1362 1363 1363 1363 1364 1365 1366 1367 1367 1368 1368 1369 1370 1370 1371 1371